This is the latest recevied weather packets stored in our database for station/object K0CVS. If no packets are shown the sender has not sent any weather packets the latest 10 day(s).
| Time | Temp. | Humidity | Pressure | Rain* | Wind** | Luminosity | Snow |
|---|---|---|---|---|---|---|---|
| 1777863644 | 20° C | 48% | 1008.2 hPa | 0 mm | - | 0 W/m² | - |
| 1777863341 | 20.56° C | 48% | 1008.1 hPa | 0 mm | - | 0 W/m² | - |
| 1777863038 | 20.56° C | 48% | 1008.2 hPa | 0 mm | - | 0 W/m² | - |
| 1777862735 | 21.11° C | 47% | 1008.2 hPa | 0 mm | - | 0 W/m² | - |
| 1777862432 | 21.11° C | 46% | 1008.1 hPa | 0 mm | - | 0 W/m² | - |
| 1777862128 | 21.11° C | 46% | 1008 hPa | 0 mm | - | 0 W/m² | - |
| 1777861824 | 21.11° C | 45% | 1008.1 hPa | 0 mm | - | 0 W/m² | - |
| 1777861520 | 20.56° C | 47% | 1008.1 hPa | 0 mm | - | 0 W/m² | - |
| 1777861217 | 20.56° C | 50% | 1007.9 hPa | 0 mm | - | 0 W/m² | - |
| 1777860914 | 20.56° C | 49% | 1007.9 hPa | 0 mm | - | 0 W/m² | - |
| 1777860611 | 20.56° C | 50% | 1008.1 hPa | 0 mm | - | 0 W/m² | - |
| 1777860308 | 20.56° C | 51% | 1008.1 hPa | 0 mm | - | 0 W/m² | - |
| 1777860005 | 21.11° C | 50% | 1008.2 hPa | 0 mm | - | 0 W/m² | - |
| 1777859701 | 21.11° C | 49% | 1008.1 hPa | 0 mm | - | 0 W/m² | - |
| 1777859396 | 21.11° C | 49% | 1007.9 hPa | 0 mm | - | 0 W/m² | - |
| 1777859093 | 21.67° C | 48% | 1008 hPa | 0 mm | - | 0 W/m² | - |
| 1777858790 | 21.67° C | 47% | 1008 hPa | 0 mm | - | 0 W/m² | - |
| 1777858489 | 21.67° C | 47% | 1008 hPa | 0 mm | - | 0 W/m² | - |
| 1777858184 | 22.22° C | 46% | 1008.1 hPa | 0 mm | - | 0 W/m² | - |
| 1777857883 | 22.22° C | 44% | 1007.9 hPa | 0 mm | - | 0 W/m² | - |
| 1777857580 | 22.78° C | 43% | 1008 hPa | 0 mm | - | 0 W/m² | - |
| 1777857276 | 22.78° C | 42% | 1007.9 hPa | 0 mm | - | 1 W/m² | - |
| 1777856972 | 23.33° C | 42% | 1008.1 hPa | 0 mm | - | 1 W/m² | - |
| 1777856668 | 23.33° C | 42% | 1008.2 hPa | 0 mm | - | 3 W/m² | - |
| 1777856364 | 23.33° C | 41% | 1008.1 hPa | 0 mm | - | 4 W/m² | - |
* Rain latest hour (hover to see other rain measurements)
** Current wind speed in m/s (hover to see current wind gust speed)